Tracking 35274 objects as of 11-Sep-2026
HD Live streaming from Space Station
objects crossing your sky now

STARLINK-31030

Track STARLINK-31030 now!
10-day predictions
STARLINK-31030 is classified as:


NORAD ID: 58542
Int'l Code: 2023-192M
Launch date: December 8, 2023
Source: United States (US)
Launch site: AIR FORCE WESTERN TEST RANGE (AFWTR)
Your satellite tracking list
Your tracking list is empty




NASA's NSSDC Master Catalog

Two Line Element Set (TLE):
1 58542U 23192M   26254.32732694  .00001623  00000-0  59197-4 0  9993
2 58542  53.1590 276.4793 0001181  82.0144 278.0992 15.34385525154465
Source of the keplerian elements: AFSPC